,,,PA_Meas_PMT16A,,PR_Meas_QMR101_102,,RH_Meas_QMH101,,SR_Meas_QMS101,,TA_Meas_QMH101,,GenWind,,GenWind,
date,time,status,PA,status,PR,status,RH,status,SR,status,TA,status,DirAvg,status,SpdAvg,
2009-12-06, 00:00:04,VALID,1004.32,VALID,0,VALID,94.9185,VALID,0,VALID,23.4487,VALID,17,VALID,0,
2009-12-06, 00:01:04,VALID,1004.34,VALID,0,VALID,94.9033,VALID,0,VALID,23.4487,VALID,17,VALID,0,
2009-12-06, 00:02:04,VALID,1004.3,VALID,0,VALID,94.9033,VALID,0,VALID,23.4293,VALID,17,VALID,0,
2009-12-06, 00:03:04,VALID,1004.31,VALID,0,VALID,94.8956,VALID,0.100563,VALID,23.4098,VALID,17,VALID,0,
2009-12-06, 00:04:04,VALID,1004.3,VALID,0,VALID,94.9109,VALID,0.100563,VALID,23.4116,VALID,17,VALID,0,
2009-12-06, 00:05:04,VALID,1004.27,VALID,0,VALID,94.888,VALID,0,VALID,23.4098,VALID,17,VALID,0,
2009-12-06, 00:06:04,VALID,1004.29,VALID,0,VALID,94.9033,VALID,0,VALID,23.4098,VALID,17,VALID,0,
2009-12-06, 00:07:04,VALID,1004.26,VALID,0,VALID,94.9033,VALID,0,VALID,23.4311,VALID,17,VALID,0,
2009-12-06, 00:08:04,VALID,1004.25,VALID,0,VALID,94.9109,VALID,0,VALID,23.3921,VALID,17,VALID,0,
2009-12-06, 00:09:04,VALID,1004.22,VALID,0,VALID,94.8956,VALID,0,VALID,23.332,VALID,17,VALID,0,
2009-12-06, 00:10:04,VALID,1004.18,VALID,0,VALID,94.9033,VALID,0,VALID,23.3514,VALID,17,VALID,0,
2009-12-06, 00:11:04,VALID,1004.17,VALID,0,VALID,94.9185,VALID,0,VALID,23.3514,VALID,17,VALID,0,
2009-12-06, 00:12:04,VALID,1004.15,VALID,0,VALID,94.9338,VALID,0,VALID,23.3514,VALID,17,VALID,0,
2009-12-06, 00:13:04,VALID,1004.12,VALID,0,VALID,94.949,VALID,0,VALID,23.332,VALID,17,VALID,0,
2009-12-06, 00:14:04,VALID,1004.12,VALID,0,VALID,94.9414,VALID,0,VALID,23.3125,VALID,17,VALID,0,
2009-12-06, 00:15:04,VALID,1004.09,VALID,0,VALID,94.9262,VALID,0.100563,VALID,23.2948,VALID,17,VALID,0,
2009-12-06, 00:16:04,VALID,1004.09,VALID,0,VALID,94.9262,VALID,0,VALID,23.2347,VALID,17,VALID,0,
2009-12-06, 00:17:04,VALID,1004.05,VALID,0,VALID,94.9338,VALID,0,VALID,23.2559,VALID,17,VALID,0,
2009-12-06, 00:18:04,VALID,1004.07,VALID,0,VALID,94.9414,VALID,0,VALID,23.2347,VALID,17,VALID,0,
2009-12-06, 00:19:04,VALID,1004.03,VALID,0,VALID,94.9567,VALID,0,VALID,23.2736,VALID,17,VALID,0,
2009-12-06, 00:20:04,VALID,1004.06,VALID,0,VALID,94.9872,VALID,0.100563,VALID,23.2736,VALID,17,VALID,0,
2009-12-06, 00:21:04,VALID,1004.02,VALID,0,VALID,94.9948,VALID,0.100563,VALID,23.2736,VALID,17,VALID,0,
2009-12-06, 00:22:04,VALID,1004.01,VALID,0,VALID,95.0177,VALID,0,VALID,23.2736,VALID,17,VALID,0,
2009-12-06, 00:23:04,VALID,1004.03,VALID,0,VALID,95.0177,VALID,0,VALID,23.2931,VALID,17,VALID,0,
2009-12-06, 00:24:04,VALID,1004.01,VALID,0,VALID,95.033,VALID,0.100563,VALID,23.2524,VALID,17,VALID,0,
2009-12-06, 00:25:04,VALID,1004.03,VALID,0,VALID,95.033,VALID,0,VALID,23.3143,VALID,17,VALID,0,
2009-12-06, 00:26:04,VALID,1004.04,VALID,0,VALID,95.0635,VALID,0,VALID,23.2347,VALID,17,VALID,0,
2009-12-06, 00:27:04,VALID,1004.07,VALID,0,VALID,95.0482,VALID,0.100563,VALID,23.217,VALID,17,VALID,0,
2009-12-06, 00:28:04,VALID,1004.05,VALID,0,VALID,95.0406,VALID,0,VALID,23.1975,VALID,16,VALID,0,
2009-12-06, 00:29:04,VALID,1004.04,VALID,0,VALID,95.0253,VALID,0,VALID,23.1975,VALID,15,VALID,0,
2009-12-06, 00:30:04,VALID,1004.04,VALID,0,VALID,95.0406,VALID,0,VALID,23.1568,VALID,15,VALID,0,
2009-12-06, 00:31:04,VALID,1004.04,VALID,0,VALID,95.0482,VALID,0,VALID,23.1391,VALID,15,VALID,0,
2009-12-06, 00:32:04,VALID,1004,VALID,0,VALID,95.0787,VALID,0,VALID,23.0984,VALID,15,VALID,0,
2009-12-06, 00:33:04,VALID,1004.05,VALID,0,VALID,95.0635,VALID,0,VALID,23.1197,VALID,15,VALID,0,
2009-12-06, 00:34:04,VALID,1004.05,VALID,0,VALID,95.0711,VALID,0.100563,VALID,23.079,VALID,15,VALID,0,
2009-12-06, 00:35:04,VALID,1004.02,VALID,0,VALID,95.0711,VALID,0,VALID,23.0613,VALID,15,VALID,0,
2009-12-06, 00:36:04,VALID,1004.02,VALID,0,VALID,95.0635,VALID,0,VALID,23.0613,VALID,15,VALID,0,
2009-12-06, 00:37:04,VALID,1004.02,VALID,0,VALID,95.0558,VALID,0,VALID,23.0418,VALID,15,VALID,0,
2009-12-06, 00:38:04,VALID,1004.02,VALID,0,VALID,95.094,VALID,0,VALID,23.0807,VALID,15,VALID,0,
2009-12-06, 00:39:04,VALID,1004.04,VALID,0,VALID,95.1093,VALID,0,VALID,23.1002,VALID,15,VALID,0,
2009-12-06, 00:40:04,VALID,1004.04,VALID,0,VALID,95.1093,VALID,0,VALID,23.079,VALID,15,VALID,0,
2009-12-06, 00:41:04,VALID,1004.02,VALID,0,VALID,95.1398,VALID,0,VALID,23.0807,VALID,15,VALID,0,
2009-12-06, 00:42:04,VALID,1004.02,VALID,0,VALID,95.1398,VALID,0,VALID,23.0418,VALID,15,VALID,0,
2009-12-06, 00:43:04,VALID,1004.03,VALID,0,VALID,95.1321,VALID,0,VALID,23.0224,VALID,15,VALID,0,
2009-12-06, 00:44:04,VALID,1004,VALID,0,VALID,95.1398,VALID,0,VALID,23.0029,VALID,15,VALID,0,
2009-12-06, 00:45:04,VALID,1003.99,VALID,0,VALID,95.1474,VALID,0,VALID,22.9622,VALID,15,VALID,0,
2009-12-06, 00:46:04,VALID,1004,VALID,0,VALID,95.1474,VALID,0,VALID,22.9622,VALID,15,VALID,0,
2009-12-06, 00:47:04,VALID,1004.01,VALID,0,VALID,95.1474,VALID,0,VALID,23.0046,VALID,15,VALID,0,
2009-12-06, 00:48:04,VALID,1003.97,VALID,0,VALID,95.1779,VALID,0,VALID,23.0224,VALID,15,VALID,0,
2009-12-06, 00:49:04,VALID,1003.98,VALID,0,VALID,95.1855,VALID,0,VALID,23.0613,VALID,15,VALID,0,
2009-12-06, 00:50:04,VALID,1003.96,VALID,0,VALID,95.2084,VALID,0,VALID,23.0401,VALID,15,VALID,0,
2009-12-06, 00:51:04,VALID,1004.01,VALID,0,VALID,95.2237,VALID,0,VALID,23.0613,VALID,15,VALID,0,
2009-12-06, 00:52:04,VALID,1003.95,VALID,0,VALID,95.2237,VALID,0,VALID,23.0224,VALID,15,VALID,0,
2009-12-06, 00:53:04,VALID,1003.96,VALID,0,VALID,95.2008,VALID,0,VALID,23.0029,VALID,15,VALID,0,
2009-12-06, 00:54:04,VALID,1003.93,VALID,0,VALID,95.2084,VALID,0,VALID,22.9622,VALID,15,VALID,0,
2009-12-06, 00:55:04,VALID,1003.95,VALID,0,VALID,95.2237,VALID,0,VALID,22.9233,VALID,15,VALID,0,
2009-12-06, 00:56:04,VALID,1003.89,VALID,0,VALID,95.2161,VALID,0,VALID,22.9251,VALID,15,VALID,0,
2009-12-06, 00:57:04,VALID,1003.94,VALID,0,VALID,95.2237,VALID,0,VALID,22.9251,VALID,15,VALID,0,
2009-12-06, 00:58:04,VALID,1003.94,VALID,0,VALID,95.2161,VALID,0,VALID,22.9056,VALID,15,VALID,0,
2009-12-06, 00:59:04,VALID,1003.88,VALID,0,VALID,95.2313,VALID,0,VALID,22.9233,VALID,15,VALID,0,
2009-12-06, 01:00:04,VALID,1003.88,VALID,0,VALID,95.2389,VALID,0,VALID,22.9039,VALID,15,VALID,0,
2009-12-06, 01:01:04,VALID,1003.87,VALID,0,VALID,95.2389,VALID,0,VALID,22.9039,VALID,15,VALID,0,
2009-12-06, 01:02:04,VALID,1003.83,VALID,0,VALID,95.2466,VALID,0,VALID,22.9056,VALID,15,VALID,0,
2009-12-06, 01:03:04,VALID,1003.83,VALID,0,VALID,95.2542,VALID,0,VALID,22.8861,VALID,15,VALID,0,
2009-12-06, 01:04:04,VALID,1003.82,VALID,0,VALID,95.2389,VALID,0,VALID,22.8667,VALID,15,VALID,0,
2009-12-06, 01:05:04,VALID,1003.79,VALID,0,VALID,95.2847,VALID,0,VALID,22.8861,VALID,15,VALID,0,
2009-12-06, 01:06:04,VALID,1003.75,VALID,0,VALID,95.2542,VALID,0,VALID,22.9056,VALID,15,VALID,0,
2009-12-06, 01:07:04,VALID,1003.75,VALID,0,VALID,95.2618,VALID,0,VALID,22.8844,VALID,15,VALID,0,
2009-12-06, 01:08:04,VALID,1003.74,VALID,0,VALID,95.2847,VALID,0,VALID,22.8649,VALID,15,VALID,0,
2009-12-06, 01:09:04,VALID,1003.76,VALID,0,VALID,95.2923,VALID,0,VALID,22.8649,VALID,15,VALID,0,
2009-12-06, 01:10:04,VALID,1003.73,VALID,0,VALID,95.3076,VALID,0,VALID,22.8649,VALID,15,VALID,0,
2009-12-06, 01:11:04,VALID,1003.7,VALID,0,VALID,95.3,VALID,0,VALID,22.8667,VALID,15,VALID,0,
2009-12-06, 01:12:04,VALID,1003.71,VALID,0,VALID,95.3,VALID,0,VALID,22.8472,VALID,15,VALID,0,
2009-12-06, 01:13:04,VALID,1003.68,VALID,0,VALID,95.3152,VALID,0,VALID,22.8066,VALID,15,VALID,0,
2009-12-06, 01:14:04,VALID,1003.66,VALID,0,VALID,95.3076,VALID,0,VALID,22.7677,VALID,15,VALID,0,
2009-12-06, 01:15:04,VALID,1003.65,VALID,0,VALID,95.3076,VALID,0,VALID,22.7888,VALID,15,VALID,0,
2009-12-06, 01:16:04,VALID,1003.61,VALID,0,VALID,95.3076,VALID,0,VALID,22.8472,VALID,15,VALID,0,
2009-12-06, 01:17:04,VALID,1003.62,VALID,0,VALID,95.3229,VALID,0,VALID,22.8649,VALID,15,VALID,0,
2009-12-06, 01:18:04,VALID,1003.62,VALID,0,VALID,95.3381,VALID,0,VALID,22.8455,VALID,15,VALID,0,
2009-12-06, 01:19:04,VALID,1003.59,VALID,0,VALID,95.3686,VALID,0,VALID,22.8472,VALID,15,VALID,0,
2009-12-06, 01:20:04,VALID,1003.59,VALID,0,VALID,95.3457,VALID,0,VALID,22.8472,VALID,15,VALID,0,
2009-12-06, 01:21:04,VALID,1003.59,VALID,0,VALID,95.361,VALID,0,VALID,22.8066,VALID,15,VALID,0,
2009-12-06, 01:22:04,VALID,1003.55,VALID,0,VALID,95.3686,VALID,0,VALID,22.8455,VALID,14,VALID,0,
2009-12-06, 01:23:04,VALID,1003.55,VALID,0,VALID,95.3686,VALID,0,VALID,22.8455,VALID,14,VALID,0,
2009-12-06, 01:24:04,VALID,1003.53,VALID,0,VALID,95.3763,VALID,0,VALID,22.8066,VALID,14,VALID,0,
2009-12-06, 01:25:04,VALID,1003.51,VALID,0,VALID,95.3915,VALID,0,VALID,22.8066,VALID,14,VALID,0,
2009-12-06, 01:26:04,VALID,1003.47,VALID,0,VALID,95.3839,VALID,0,VALID,22.826,VALID,12,VALID,0,
2009-12-06, 01:27:04,VALID,1003.46,VALID,0,VALID,95.3991,VALID,0.100563,VALID,22.8861,VALID,12,VALID,0,
2009-12-06, 01:28:04,VALID,1003.47,VALID,0,VALID,95.3991,VALID,0,VALID,22.8844,VALID,12,VALID,0,
2009-12-06, 01:29:04,VALID,1003.44,VALID,0,VALID,95.4144,VALID,0,VALID,22.9039,VALID,12,VALID,0,
2009-12-06, 01:30:04,VALID,1003.44,VALID,0,VALID,95.4297,VALID,0,VALID,22.9056,VALID,12,VALID,0,
2009-12-06, 01:31:04,VALID,1003.42,VALID,0,VALID,95.4297,VALID,0,VALID,22.8455,VALID,12,VALID,0,
2009-12-06, 01:32:04,VALID,1003.47,VALID,0,VALID,95.4297,VALID,0,VALID,22.826,VALID,12,VALID,0,
2009-12-06, 01:33:04,VALID,1003.44,VALID,0,VALID,95.422,VALID,0.100563,VALID,22.826,VALID,12,VALID,0,
2009-12-06, 01:34:04,VALID,1003.42,VALID,0,VALID,95.4449,VALID,0,VALID,22.7871,VALID,12,VALID,0,
2009-12-06, 01:35:04,VALID,1003.38,VALID,0,VALID,95.4297,VALID,0,VALID,22.7677,VALID,12,VALID,0,
2009-12-06, 01:36:04,VALID,1003.37,VALID,0,VALID,95.4373,VALID,0,VALID,22.7287,VALID,12,VALID,0,
2009-12-06, 01:37:04,VALID,1003.38,VALID,0,VALID,95.422,VALID,0,VALID,22.7093,VALID,12,VALID,0,
2009-12-06, 01:38:04,VALID,1003.37,VALID,0,VALID,95.422,VALID,0,VALID,22.7305,VALID,12,VALID,0,
2009-12-06, 01:39:04,VALID,1003.37,VALID,0,VALID,95.4526,VALID,0,VALID,22.7287,VALID,12,VALID,0,
2009-12-06, 01:40:04,VALID,1003.35,VALID,0,VALID,95.422,VALID,0,VALID,22.7694,VALID,12,VALID,0,
2009-12-06, 01:41:04,VALID,1003.32,VALID,0,VALID,95.4449,VALID,0,VALID,22.7287,VALID,12,VALID,0,
2009-12-06, 01:42:04,VALID,1003.35,VALID,0,VALID,95.4297,VALID,0,VALID,22.7287,VALID,12,VALID,0,
2009-12-06, 01:43:04,VALID,1003.31,VALID,0,VALID,95.4373,VALID,0,VALID,22.7305,VALID,12,VALID,0,
2009-12-06, 01:44:04,VALID,1003.31,VALID,0,VALID,95.4602,VALID,0,VALID,22.6492,VALID,12,VALID,0,
2009-12-06, 01:45:04,VALID,1003.3,VALID,0,VALID,95.4526,VALID,0,VALID,22.6898,VALID,12,VALID,0,
2009-12-06, 01:46:04,VALID,1003.27,VALID,0,VALID,95.4526,VALID,0,VALID,22.6915,VALID,12,VALID,0,
2009-12-06, 01:47:04,VALID,1003.22,VALID,0,VALID,95.4526,VALID,0,VALID,22.6704,VALID,12,VALID,0,
2009-12-06, 01:48:04,VALID,1003.24,VALID,0,VALID,95.4754,VALID,0,VALID,22.6315,VALID,12,VALID,0,
2009-12-06, 01:49:04,VALID,1003.22,VALID,0,VALID,95.4449,VALID,0,VALID,22.5942,VALID,12,VALID,0,
2009-12-06, 01:50:04,VALID,1003.2,VALID,0,VALID,95.4526,VALID,0,VALID,22.5536,VALID,12,VALID,0,
2009-12-06, 01:51:04,VALID,1003.2,VALID,0,VALID,95.4449,VALID,0,VALID,22.5536,VALID,12,VALID,0,
2009-12-06, 01:52:04,VALID,1003.22,VALID,0,VALID,95.4526,VALID,0,VALID,22.5925,VALID,12,VALID,0,
2009-12-06, 01:53:04,VALID,1003.19,VALID,0,VALID,95.4526,VALID,0,VALID,22.6315,VALID,12,VALID,0,
2009-12-06, 01:54:04,VALID,1003.2,VALID,0,VALID,95.4449,VALID,0,VALID,22.6704,VALID,12,VALID,0,
2009-12-06, 01:55:04,VALID,1003.18,VALID,0,VALID,95.4526,VALID,0,VALID,22.7287,VALID,12,VALID,0,
2009-12-06, 01:56:04,VALID,1003.2,VALID,0,VALID,95.4678,VALID,0,VALID,22.7482,VALID,12,VALID,0,
2009-12-06, 01:57:04,VALID,1003.18,VALID,0,VALID,95.4754,VALID,0,VALID,22.6898,VALID,12,VALID,0,
2009-12-06, 01:58:04,VALID,1003.17,VALID,0,VALID,95.4907,VALID,0,VALID,22.6898,VALID,12,VALID,0,
2009-12-06, 01:59:04,VALID,1003.15,VALID,0,VALID,95.4907,VALID,0,VALID,22.7482,VALID,12,VALID,0,
2009-12-06, 02:00:04,VALID,1003.11,VALID,0,VALID,95.4983,VALID,0,VALID,22.7888,VALID,12,VALID,0,
2009-12-06, 02:01:04,VALID,1003.1,VALID,0,VALID,95.4831,VALID,0,VALID,22.7482,VALID,12,VALID,0,
2009-12-06, 02:02:04,VALID,1003.11,VALID,0,VALID,95.4831,VALID,0,VALID,22.7482,VALID,12,VALID,0,
2009-12-06, 02:03:04,VALID,1003.08,VALID,0,VALID,95.4907,VALID,0,VALID,22.7871,VALID,12,VALID,0,
2009-12-06, 02:04:04,VALID,1003.07,VALID,0,VALID,95.4907,VALID,0,VALID,22.8455,VALID,12,VALID,0,
2009-12-06, 02:05:04,VALID,1003.09,VALID,0,VALID,95.5136,VALID,0,VALID,22.9039,VALID,12,VALID,0,
2009-12-06, 02:06:04,VALID,1003.06,VALID,0,VALID,95.5136,VALID,0,VALID,22.9039,VALID,12,VALID,0,
2009-12-06, 02:07:04,VALID,1003.1,VALID,0,VALID,95.506,VALID,0,VALID,22.8844,VALID,12,VALID,0,
2009-12-06, 02:08:04,VALID,1003.1,VALID,0,VALID,95.5212,VALID,0,VALID,22.9039,VALID,12,VALID,0,
2009-12-06, 02:09:04,VALID,1003.12,VALID,0,VALID,95.5136,VALID,0,VALID,22.8455,VALID,12,VALID,0,
2009-12-06, 02:10:04,VALID,1003.1,VALID,0,VALID,95.5212,VALID,0.100563,VALID,22.826,VALID,12,VALID,0,
2009-12-06, 02:11:04,VALID,1003.13,VALID,0,VALID,95.5365,VALID,0,VALID,22.7677,VALID,12,VALID,0,
2009-12-06, 02:12:04,VALID,1003.1,VALID,0,VALID,95.5136,VALID,0,VALID,22.7677,VALID,12,VALID,0,
2009-12-06, 02:13:04,VALID,1003.1,VALID,0,VALID,95.5136,VALID,0,VALID,22.7888,VALID,12,VALID,0,
2009-12-06, 02:14:04,VALID,1003.09,VALID,0,VALID,95.5136,VALID,0,VALID,22.7694,VALID,12,VALID,0,
2009-12-06, 02:15:04,VALID,1003.1,VALID,0,VALID,95.5212,VALID,0.100563,VALID,22.7482,VALID,12,VALID,0,
2009-12-06, 02:16:04,VALID,1003.09,VALID,0,VALID,95.506,VALID,0,VALID,22.7465,VALID,12,VALID,0,
2009-12-06, 02:17:04,VALID,1003.09,VALID,0,VALID,95.5136,VALID,0,VALID,22.8667,VALID,12,VALID,0,
2009-12-06, 02:18:04,VALID,1003.11,VALID,0,VALID,95.5365,VALID,0,VALID,22.8455,VALID,12,VALID,0,
2009-12-06, 02:19:04,VALID,1003.1,VALID,0,VALID,95.5136,VALID,0,VALID,22.8667,VALID,12,VALID,0,
2009-12-06, 02:20:04,VALID,1003.09,VALID,0,VALID,95.5288,VALID,0,VALID,22.8649,VALID,12,VALID,0,
2009-12-06, 02:21:04,VALID,1003.08,VALID,0,VALID,95.5441,VALID,0,VALID,22.8667,VALID,12,VALID,0,
2009-12-06, 02:22:04,VALID,1003.07,VALID,0,VALID,95.5365,VALID,0,VALID,22.8472,VALID,12,VALID,0,
2009-12-06, 02:23:04,VALID,1003.06,VALID,0,VALID,95.5288,VALID,0,VALID,22.8472,VALID,12,VALID,0,
2009-12-06, 02:24:04,VALID,1003.05,VALID,0,VALID,95.5517,VALID,0,VALID,22.8066,VALID,12,VALID,0,
2009-12-06, 02:25:04,VALID,1003.03,VALID,0,VALID,95.5365,VALID,0,VALID,22.7888,VALID,12,VALID,0,
2009-12-06, 02:26:04,VALID,1003.04,VALID,0,VALID,95.5441,VALID,0,VALID,22.81,VALID,12,VALID,0,
2009-12-06, 02:27:04,VALID,1003.02,VALID,0,VALID,95.5212,VALID,0,VALID,22.7871,VALID,12,VALID,0,
2009-12-06, 02:28:04,VALID,1003.02,VALID,0,VALID,95.5212,VALID,0,VALID,22.7871,VALID,12,VALID,0,
2009-12-06, 02:29:04,VALID,1002.98,VALID,0,VALID,95.5288,VALID,0,VALID,22.7888,VALID,12,VALID,0,
2009-12-06, 02:30:04,VALID,1002.98,VALID,0,VALID,95.5288,VALID,0,VALID,22.7287,VALID,12,VALID,0,
2009-12-06, 02:31:04,VALID,1002.99,VALID,0,VALID,95.5288,VALID,0,VALID,22.6704,VALID,12,VALID,0,
2009-12-06, 02:32:04,VALID,1002.98,VALID,0,VALID,95.5288,VALID,0,VALID,22.6526,VALID,12,VALID,0,
2009-12-06, 02:33:04,VALID,1002.96,VALID,0,VALID,95.5365,VALID,0,VALID,22.612,VALID,12,VALID,0,
2009-12-06, 02:34:04,VALID,1002.99,VALID,0,VALID,95.5365,VALID,0,VALID,22.6315,VALID,12,VALID,0,
2009-12-06, 02:35:04,VALID,1002.99,VALID,0,VALID,95.5365,VALID,0,VALID,22.6315,VALID,12,VALID,0,
2009-12-06, 02:36:04,VALID,1002.97,VALID,0,VALID,95.5288,VALID,0,VALID,22.7305,VALID,12,VALID,0,
2009-12-06, 02:37:04,VALID,1002.94,VALID,0,VALID,95.5441,VALID,0.100563,VALID,22.7694,VALID,12,VALID,0,
2009-12-06, 02:38:04,VALID,1002.94,VALID,0,VALID,95.5288,VALID,0,VALID,22.7287,VALID,12,VALID,0,
2009-12-06, 02:39:04,VALID,1002.92,VALID,0,VALID,95.5517,VALID,0,VALID,22.711,VALID,12,VALID,0,
2009-12-06, 02:40:04,VALID,1002.88,VALID,0,VALID,95.5441,VALID,0,VALID,22.6915,VALID,12,VALID,0,
2009-12-06, 02:41:04,VALID,1002.86,VALID,0,VALID,95.5517,VALID,0,VALID,22.6315,VALID,12,VALID,0,
2009-12-06, 02:42:04,VALID,1002.86,VALID,0,VALID,95.5594,VALID,0,VALID,22.612,VALID,12,VALID,0,
2009-12-06, 02:43:04,VALID,1002.85,VALID,0,VALID,95.5746,VALID,0,VALID,22.6332,VALID,12,VALID,0,
2009-12-06, 02:44:04,VALID,1002.85,VALID,0,VALID,95.5746,VALID,0,VALID,22.6137,VALID,12,VALID,0,
2009-12-06, 02:45:04,VALID,1002.82,VALID,0,VALID,95.5594,VALID,0,VALID,22.6137,VALID,12,VALID,0,
2009-12-06, 02:46:04,VALID,1002.78,VALID,0,VALID,95.567,VALID,0.100563,VALID,22.5731,VALID,12,VALID,0,
2009-12-06, 02:47:04,VALID,1002.79,VALID,0,VALID,95.5594,VALID,0,VALID,22.5942,VALID,12,VALID,0,
2009-12-06, 02:48:04,VALID,1002.84,VALID,0,VALID,95.5746,VALID,0,VALID,22.5731,VALID,12,VALID,0,
2009-12-06, 02:49:04,VALID,1002.78,VALID,0,VALID,95.5746,VALID,0,VALID,22.5731,VALID,12,VALID,0,
2009-12-06, 02:50:04,VALID,1002.79,VALID,0,VALID,95.5517,VALID,0,VALID,22.6137,VALID,12,VALID,0,
2009-12-06, 02:51:04,VALID,1002.78,VALID,0,VALID,95.5822,VALID,0,VALID,22.6509,VALID,11,VALID,0,
2009-12-06, 02:52:04,VALID,1002.77,VALID,0,VALID,95.5594,VALID,0,VALID,22.6915,VALID,11,VALID,0,
2009-12-06, 02:53:04,VALID,1002.78,VALID,0,VALID,95.5822,VALID,0.100563,VALID,22.6509,VALID,11,VALID,0,
2009-12-06, 02:54:04,VALID,1002.79,VALID,0,VALID,95.5899,VALID,0,VALID,22.6315,VALID,10,VALID,0,
2009-12-06, 02:55:04,VALID,1002.77,VALID,0,VALID,95.5822,VALID,0,VALID,22.6509,VALID,3,VALID,0,
2009-12-06, 02:56:04,VALID,1002.78,VALID,0,VALID,95.5899,VALID,0,VALID,22.6103,VALID,2,VALID,0.795703,
2009-12-06, 02:57:04,VALID,1002.78,VALID,0,VALID,95.5975,VALID,0.100563,VALID,22.612,VALID,2,VALID,0.669531,
2009-12-06, 02:58:04,VALID,1002.77,VALID,0,VALID,95.5975,VALID,0,VALID,22.5731,VALID,2,VALID,0.318359,
2009-12-06, 02:59:04,VALID,1002.8,VALID,0,VALID,95.6051,VALID,0,VALID,22.5731,VALID,2,VALID,0.30625,
2009-12-06, 03:00:04,VALID,1002.8,VALID,0,VALID,95.5975,VALID,0,VALID,22.6721,VALID,2,VALID,0.49375,
2009-12-06, 03:01:04,VALID,1002.76,VALID,0,VALID,95.6051,VALID,0,VALID,22.6898,VALID,2,VALID,0.474219,
2009-12-06, 03:02:04,VALID,1002.81,VALID,0,VALID,95.628,VALID,0,VALID,22.6526,VALID,2,VALID,0.211328,
2009-12-06, 03:03:04,VALID,1002.79,VALID,0,VALID,95.6204,VALID,0,VALID,22.7287,VALID,2,VALID,0.722656,
2009-12-06, 03:04:04,VALID,1002.81,VALID,0,VALID,95.628,VALID,0,VALID,22.711,VALID,2,VALID,0.783594,
2009-12-06, 03:05:04,VALID,1002.79,VALID,0,VALID,95.6204,VALID,0,VALID,22.6315,VALID,2,VALID,0.385547,
2009-12-06, 03:06:04,VALID,1002.78,VALID,0,VALID,95.628,VALID,0,VALID,22.6509,VALID,2,VALID,0.601953,
2009-12-06, 03:07:04,VALID,1002.76,VALID,0,VALID,95.6509,VALID,0,VALID,22.6898,VALID,2,VALID,0.765234,
2009-12-06, 03:08:04,VALID,1002.77,VALID,0,VALID,95.6356,VALID,0,VALID,22.612,VALID,2,VALID,0.591406,
2009-12-06, 03:09:04,VALID,1002.77,VALID,0,VALID,95.6433,VALID,0,VALID,22.5731,VALID,2,VALID,0.565234,
2009-12-06, 03:10:04,VALID,1002.78,VALID,0,VALID,95.6585,VALID,0,VALID,22.5731,VALID,2,VALID,0.435937,
2009-12-06, 03:11:04,VALID,1002.76,VALID,0,VALID,95.6585,VALID,0.100563,VALID,22.5519,VALID,2,VALID,0.272656,
2009-12-06, 03:12:04,VALID,1002.75,VALID,0,VALID,95.6509,VALID,0,VALID,22.5536,VALID,2,VALID,0.450391,
2009-12-06, 03:13:04,VALID,1002.75,VALID,0,VALID,95.6509,VALID,0,VALID,22.5925,VALID,2,VALID,0.347266,
2009-12-06, 03:14:04,VALID,1002.78,VALID,0,VALID,95.6509,VALID,0.100563,VALID,22.6509,VALID,2,VALID,0.05,
2009-12-06, 03:15:04,VALID,1002.77,VALID,0,VALID,95.6433,VALID,0,VALID,22.7093,VALID,2,VALID,0,
2009-12-06, 03:16:04,VALID,1002.83,VALID,0,VALID,95.6585,VALID,0.100563,VALID,22.7871,VALID,2,VALID,0,
2009-12-06, 03:17:04,VALID,1002.83,VALID,0,VALID,95.6585,VALID,0.100563,VALID,22.8844,VALID,2,VALID,0,
2009-12-06, 03:18:04,VALID,1002.84,VALID,0,VALID,95.6662,VALID,0.100563,VALID,22.9622,VALID,2,VALID,0.260547,
2009-12-06, 03:19:04,VALID,1002.83,VALID,0,VALID,95.6585,VALID,0.100563,VALID,22.9233,VALID,2,VALID,0,
2009-12-06, 03:20:04,VALID,1002.81,VALID,0,VALID,95.6738,VALID,0.100563,VALID,22.8455,VALID,2,VALID,0.342578,
2009-12-06, 03:21:04,VALID,1002.83,VALID,0,VALID,95.6814,VALID,0.100563,VALID,22.8048,VALID,2,VALID,0.438672,
2009-12-06, 03:22:04,VALID,1002.85,VALID,0,VALID,95.6814,VALID,0.100563,VALID,22.7482,VALID,2,VALID,0.241406,
2009-12-06, 03:23:04,VALID,1002.86,VALID,0,VALID,95.6662,VALID,0.100563,VALID,22.7093,VALID,2,VALID,0.309766,
2009-12-06, 03:24:04,VALID,1002.89,VALID,0,VALID,95.7119,VALID,0.100563,VALID,22.6704,VALID,2,VALID,0.315625,
2009-12-06, 03:25:04,VALID,1002.91,VALID,0,VALID,95.6814,VALID,0.100563,VALID,22.6704,VALID,2,VALID,0.436719,
2009-12-06, 03:26:04,VALID,1002.9,VALID,0,VALID,95.6814,VALID,0.100563,VALID,22.7677,VALID,2,VALID,0.308594,
2009-12-06, 03:27:04,VALID,1002.91,VALID,0,VALID,95.6967,VALID,0.100563,VALID,22.7694,VALID,2,VALID,0.216797,
2009-12-06, 03:28:04,VALID,1002.9,VALID,0,VALID,95.689,VALID,0,VALID,22.6898,VALID,2,VALID,0.280469,
2009-12-06, 03:29:04,VALID,1002.92,VALID,0,VALID,95.689,VALID,0,VALID,22.6509,VALID,2,VALID,0.390234,
2009-12-06, 03:30:04,VALID,1002.94,VALID,0,VALID,95.689,VALID,0.100563,VALID,22.6704,VALID,2,VALID,0.5375,
2009-12-06, 03:31:04,VALID,1002.97,VALID,0,VALID,95.6967,VALID,0.100563,VALID,22.6704,VALID,2,VALID,0.692187,
2009-12-06, 03:32:04,VALID,1002.97,VALID,0,VALID,95.689,VALID,0.100563,VALID,22.7482,VALID,2,VALID,0.370313,
2009-12-06, 03:33:04,VALID,1002.99,VALID,0,VALID,95.7043,VALID,0,VALID,22.7465,VALID,2,VALID,0.308203,
2009-12-06, 03:34:04,VALID,1003.02,VALID,0,VALID,95.6967,VALID,0.100563,VALID,22.7871,VALID,2,VALID,0.186328,
2009-12-06, 03:35:04,VALID,1002.99,VALID,0,VALID,95.689,VALID,0.100563,VALID,22.826,VALID,2,VALID,0.327344,
2009-12-06, 03:36:04,VALID,1002.99,VALID,0,VALID,95.7043,VALID,0.100563,VALID,22.7871,VALID,2,VALID,0.508594,
2009-12-06, 03:37:04,VALID,1002.99,VALID,0,VALID,95.7119,VALID,0,VALID,22.7482,VALID,2,VALID,0.645312,
2009-12-06, 03:38:04,VALID,1002.99,VALID,0,VALID,95.7196,VALID,0.100563,VALID,22.6704,VALID,2,VALID,0.451953,
2009-12-06, 03:39:04,VALID,1002.97,VALID,0,VALID,95.7196,VALID,0.100563,VALID,22.6704,VALID,2,VALID,0.682422,
2009-12-06, 03:40:04,VALID,1002.96,VALID,0,VALID,95.7196,VALID,0,VALID,22.612,VALID,2,VALID,0.485547,
2009-12-06, 03:41:04,VALID,1002.96,VALID,0,VALID,95.7196,VALID,0.100563,VALID,22.5731,VALID,2,VALID,0.478125,
2009-12-06, 03:42:04,VALID,1002.96,VALID,0,VALID,95.7119,VALID,0.100563,VALID,22.5714,VALID,2,VALID,0.622266,
2009-12-06, 03:43:04,VALID,1002.97,VALID,0,VALID,95.7196,VALID,0,VALID,22.6543,VALID,2,VALID,0.414063,
2009-12-06, 03:44:04,VALID,1002.99,VALID,0,VALID,95.7119,VALID,0,VALID,22.6332,VALID,2,VALID,0.351563,
2009-12-06, 03:45:04,VALID,1003.01,VALID,0,VALID,95.7196,VALID,0,VALID,22.6315,VALID,2,VALID,0.341797,
2009-12-06, 03:46:04,VALID,1003.01,VALID,0,VALID,95.7043,VALID,0,VALID,22.6738,VALID,2,VALID,0.305469,
2009-12-06, 03:47:04,VALID,1003.03,VALID,0,VALID,95.7119,VALID,0,VALID,22.7305,VALID,2,VALID,0.316406,
2009-12-06, 03:48:04,VALID,1003.02,VALID,0,VALID,95.7043,VALID,0,VALID,22.7694,VALID,2,VALID,0,
2009-12-06, 03:49:04,VALID,1003.02,VALID,0,VALID,95.7348,VALID,0,VALID,22.7888,VALID,2,VALID,0,
2009-12-06, 03:50:04,VALID,1002.99,VALID,0,VALID,95.7348,VALID,0,VALID,22.7305,VALID,2,VALID,0,
2009-12-06, 03:51:04,VALID,1003.01,VALID,0,VALID,95.7272,VALID,0,VALID,22.7499,VALID,360,VALID,0,
2009-12-06, 03:52:04,VALID,1003.04,VALID,0,VALID,95.7272,VALID,0,VALID,22.7711,VALID,359,VALID,0,
2009-12-06, 03:53:04,VALID,1003.08,VALID,0,VALID,95.7424,VALID,0,VALID,22.7694,VALID,359,VALID,0,
2009-12-06, 03:54:04,VALID,1003.04,VALID,0,VALID,95.7119,VALID,0,VALID,22.7888,VALID,359,VALID,0,
2009-12-06, 03:55:04,VALID,1003.05,VALID,0,VALID,95.7119,VALID,0,VALID,22.9268,VALID,358,VALID,0,
2009-12-06, 03:56:04,VALID,1003.06,VALID,0,VALID,95.7348,VALID,0,VALID,22.9073,VALID,358,VALID,0,